Location: Antoign�
(47.0844°N, 0.1131°W)
Time: 21:14:38
(UTC+00:00)

Gbstr 26 Del rocket - Pass Details

Date: 03 March 2021
Orbit: 492 x 1264 km, 51.8° (Epoch: 14 April)

Event Time Altitude Azimuth Distance (km) Brightness Sun altitude
Rises 19:52:59 0° 284° (WNW) 2,868 8.0 -21.8°
Reaches altitude 10° 19:55:09 10° 289° (WNW) 2,053 6.9 -22.1°
Maximum altitude 19:59:45 51° 6° (N) 934 3.9 -22.9°
Enters shadow 20:01:07 41° 51° (NE) 1,118 4.0 -23.1°
